Showing default

IRIDIUM 153, 43078

Orbit data source: Space-Track

IRIDIUM 153, 43078 is a payload satellite owned by Iridium (US) in LEO that was launched on Sat, 23 Dec 2017 UTC via an FALCON 9 launch vehicle from the Air Force Western Test Range (AFWTR). Payload-class satellites include a variety of spacecraft equipped with specific instruments for various scientific and technological missions. These include communications satellites like Starlink; space stations such as the ISS; scientific satellites like the Hubble; Earth observation satellites from companies like Planet Labs, Umbra, and HawkEye 360; GPS; miniature CubeSats for education and research; and military/defense satellites.

Loading next visibility...
Identifier
43078, 2017-083J
Orbit
LEO
Country
Flag of USUS
Related business
Manufacturer
OATK SSG Gilbert
Mission
Operational Commercial Communications
Bus & Motor
ELITEBUS, Unknown motor
Mass
860 kg wet, 700 kg dry
Launch date (UTC)
2017-12-23 (8 years ago)
Launch vehicle
FALCON 9
Launch site
Air Force Western Test Range (AFWTR)
Object type
Payload
Rocket body
Debris
Shape & HBR
Trap Box + 2 Pan, 4.8 m
Radar Cross Section
10.154 m², Large (>1 m²)

Expand to show TLE details & history
Last TLE update: 21 hours ago

TLE from 21 hours ago
0 IRIDIUM 153
1 43078U 17083J   25288.75536337  .00000231  00000-0  75417-4 0  9999
2 43078  86.4006  32.6366 0002506  95.6129 264.5353 14.34216601410246
Epoch: 2025-10-15T18:07Z
TLE epoch observation values (Epoch: 2025-10-15T18:07:43.395Z)
Latitude
0.00003°
Longitude
96.1809°
Altitude
780.893 km
Speed
7.463 km/s
True Right ascension
02h 10m 32s
True Declination
0° 00' 00"
Sunlit
Object was in full shadow at epoch
Visualization orbit readout
Latitude
Unknown
Longitude
Unknown
Altitude
Unknown
Speed
Unknown
Apparent Right ascension
Unknown
Apparent Declination
Unknown
Sunlit
N/A
Visualization observer readout
Local Sidereal Time
09:32:30
Azimuth
Unknown
Elevation
Unknown
Doppler factor
Unknown
Orbital elements
Apogee altitude
776.428 km
Perigee altitude
772.843 km
Semi-major axis
7,152.772 km
Eccentricity
0.00025
Inclination
86.4006°
RAAN
32.6366°
Arg. of periapsis
95.6129°
True anomaly
264.50671°
Mean anomaly
264.5353°
Eccentric anomaly
264.52101°
Mean motion
3.58783 °/min
Orbital period
100.34 mins
BSTAR
0.000075417
Loading maneuver chart data...
Computing Atmospheric mass density...
Loading historical data...
Loading historical data...
Loading historical data...
Loading historical data...
Loading historical data...
Loading historical data...
Loading historical data...

Documentation

Showing up to 5 results
|